Date,TemperatureHighF,TemperatureAvgF,TemperatureLowF,DewpointHighF,DewpointAvgF,DewpointLowF,HumidityHigh,HumidityAvg,HumidityLow,PressureMaxIn,PressureMinIn,WindSpeedMaxMPH,WindSpeedAvgMPH,GustSpeedMaxMPH,PrecipitationSumIn
2013-4-1,68.5,57.2,47.3,37.4,-6.0,-99.9,54,19,11,25.01,24.86,22,7,30,0.00
2013-4-2,57.2,48.2,40.5,34.9,26.4,19.9,63,43,24,25.04,24.92,16,6,22,0.00
2013-4-3,66.9,52.4,37.6,34.7,-22.8,-99.9,78,32,11,25.16,25.04,10,4,17,0.00
2013-4-4,70.2,57.0,39.9,19.4,-49.0,-99.9,40,10,11,25.22,25.04,9,4,15,0.12
2013-4-5,72.9,58.7,50.0,38.3,-39.4,-99.9,58,14,11,25.04,24.83,19,6,40,0.00
2013-4-6,67.5,55.1,41.2,29.7,-10.0,-99.9,53,25,11,25.04,24.89,16,5,25,0.00
2013-4-7,69.6,56.9,45.3,30.9,-28.7,-99.9,53,23,13,24.98,24.72,16,6,30,0.00
2013-4-8,67.1,54.2,43.2,41.2,-48.2,-99.9,77,21,11,24.72,24.45,19,10,38,0.00
2013-4-9,46.0,35.3,25.3,30.6,18.2,6.6,73,50,34,25.07,24.54,13,7,20,0.00
2013-4-10,47.3,31.1,23.4,7.7,-2.2,-99.9,46,28,12,25.16,25.01,9,4,16,0.00
2013-4-11,48.0,47.1,46.0,24.8,23.7,23.0,41,39,38,24.92,24.89,3,1,5,0.00
2013-4-12,65.3,51.3,36.5,30.6,-32.5,-99.9,68,27,26,24.98,24.89,10,4,19,0.00
2013-4-13,71.1,54.3,34.9,44.1,-37.7,-99.9,84,17,11,24.92,24.51,22,7,44,0.00
2013-4-14,58.3,49.1,39.4,43.3,-31.2,-99.9,81,20,11,24.86,24.63,14,8,24,0.00
2013-4-15,51.4,42.3,38.3,38.3,25.9,-4.4,91,63,11,24.77,24.60,10,4,16,0.00
2013-4-16,54.9,41.3,31.8,38.5,33.4,27.0,94,76,34,24.89,24.63,18,6,31,0.00
2013-4-17,35.8,31.4,26.6,30.4,18.9,7.7,96,64,32,25.13,24.83,13,3,20,0.00
2013-4-18,42.4,32.6,24.4,14.2,7.4,-5.8,51,36,13,25.28,25.13,10,5,18,0.00
2013-4-19,52.7,40.9,26.2,22.6,12.2,1.8,63,35,13,25.28,25.04,8,4,15,0.00
2013-4-20,57.6,48.9,42.1,36.5,27.1,20.1,66,44,25,25.10,24.98,13,6,26,0.00
2013-4-21,66.7,52.5,36.7,33.8,-21.6,-99.9,77,33,11,25.19,24.98,12,4,22,0.00
2013-4-22,70.0,56.6,41.7,27.3,-33.6,-99.9,53,15,11,25.01,24.83,19,8,30,0.00
2013-4-23,52.7,45.3,36.9,15.8,-45.5,-99.9,32,11,11,25.13,24.98,14,8,24,0.00
2013-4-24,60.8,48.4,37.4,4.6,-58.2,-99.9,24,7,11,25.19,25.10,9,5,18,0.00
2013-4-25,69.8,55.5,39.9,-0.2,-65.6,-99.9,16,4,11,25.13,24.92,17,7,30,0.00
2013-4-26,71.6,59.6,41.9,2.7,-92.7,-99.9,14,1,11,25.19,25.01,11,5,19,0.00
2013-4-27,74.8,60.9,42.8,8.2,-78.9,-99.9,23,3,11,25.28,25.10,13,5,22,0.00
2013-4-28,80.1,64.0,43.0,12.6,-76.0,-99.9,28,4,11,25.13,24.92,14,6,22,0.00
2013-4-29,81.5,67.9,48.4,21.0,-77.6,-99.9,31,4,11,24.98,24.75,16,6,27,0.00
2013-4-30,81.5,65.4,48.9,39.7,-56.8,-99.9,67,9,11,24.95,24.69,21,7,33,0.00